Home   Weather   Galapagos Islands   Past weeks

Flag for Ecuador Past Weather in Galapagos Islands, Ecuador — Yesterday and Last 2 Weeks

Now
77 °F

Scattered clouds.


Feels Like: 79 °F
Forecast: N/A
Wind: 16 mph from Northwest

Location: Manta Airport

Current Time: Jul 23, 2017 at 5:00:53 pm

Latest Report: Jul 23, 2017 at 3:00 pm


Visibility: N/A

Pressure: 29.80 "Hg

Humidity: 74%

Dew Point: 68 °F

Location of Galapagos IslandsLocation

Past Weather in Galapagos Islands — Graph

°F

Galapagos Islands Temperature Yesterday

Maximum temperature yesterday: 84 °F (at 1:00 pm)
Minimum temperature yesterday: 70 °F (at 5:00 am)
Average temperature yesterday: 76 °F

High & Low Weather Summary for the Past Weeks

 TemperatureHumidityPressure
High84 °F (Jul 12, 1:00 pm)94% (Jul 9, 6:00 am)30.01 "Hg (Jul 9, 6:00 am)
Low70 °F (Jul 17, 5:00 am)58% (Jul 16, 12:00 pm)29.80 "Hg (Jul 23, 3:00 pm)
Average75 °F85%29.91 "Hg
* Reported Jul 8 3:00 pm — Jul 23 3:00 pm, Galapagos Islands. Weather by CustomWeather, © 2017

Note: Actual official high and low records may vary slightly from our data, if they occured in-between our weather recording intervals... More about our weather records

Advertising

Galapagos Islands Weather History for the Previous 24 Hours

Scroll right to see more
 ConditionsComfort  
Time TempWeatherWind HumidityBarometerVisibility
3:00 pm
Sun, Jul 23
77 °FScattered clouds.16 mph74%29.80 "HgN/A
2:00 pm79 °FPassing clouds.21 mph70%29.83 "HgN/A
1:00 pm84 °FPassing clouds.9 mph58%29.83 "HgN/A
12:00 pm82 °FPassing clouds.5 mph66%29.86 "HgN/A
11:00 am81 °FScattered clouds.8 mph79%29.89 "HgN/A
10:00 am79 °FScattered clouds.6 mph79%29.92 "HgN/A
9:00 am77 °FPartly sunny.8 mph83%29.92 "HgN/A
8:00 am75 °FScattered clouds.7 mph83%29.92 "HgN/A
7:00 am72 °FPartly sunny.9 mph88%29.92 "HgN/A
6:00 am72 °FScattered clouds.6 mph88%29.89 "HgN/A
5:00 am70 °FPassing clouds.8 mph94%29.89 "HgN/A
4:00 am72 °FOvercast.7 mph94%29.89 "HgN/A
3:00 am72 °FPassing clouds.6 mph94%29.89 "HgN/A
2:00 am72 °FPassing clouds.7 mph94%29.89 "HgN/A
1:00 am72 °FPassing clouds.6 mph94%29.92 "HgN/A
12:00 am72 °FPassing clouds.9 mph94%29.92 "HgN/A
11:00 pm
Sat, Jul 22
73 °FPassing clouds.7 mph89%29.95 "HgN/A
10:00 pm73 °FPassing clouds.9 mph89%29.95 "HgN/A
9:00 pm73 °FPassing clouds.9 mph89%29.95 "HgN/A
8:00 pm73 °FPassing clouds.8 mph89%29.92 "HgN/A
7:00 pm73 °FPassing clouds.10 mph89%29.92 "HgN/A
6:00 pm75 °FPassing clouds.10 mph83%29.89 "HgN/A
5:00 pm77 °FPartly sunny.9 mph83%29.86 "HgN/A
Weather by CustomWeather, © 2017

See weather overviewHow to use our weather pages